Change the Weather History Date:

Thursday, March 7, 2013

  Actual Average Record
Temperature  
Mean Temperature 38 °F -  
Max Temperature 52 °F 33 °F 71 °F (2006)
Min Temperature 25 °F 15 °F -2 °F (2008)
Degree Days  
Heating Degree Days 26    
Moisture  
Dew Point 25 °F    
Average Humidity 67    
Maximum Humidity 85    
Minimum Humidity 41    
Precipitation  
Precipitation 0.00 in - - ()
Sea Level Pressure  
Sea Level Pressure 30.06 in    
Wind  
Wind Speed 16 mph (SE)    
Max Wind Speed 24 mph    
Max Gust Speed 30 mph    
Averages and records for this station are not official NWS values.
T = Trace of Precipitation, MM = Missing Value Source: NWS Daily Summary

Daily Weather History Graph

Daily Weather History Graph

Search for Another Location

Airport or City:

Trip Planner

Search our weather history database for the weather conditions in past years. The results will help you decide how hot, cold, wet, or windy it might be!

Date:

Astronomy

Mar. 07, 2013 Rise Set
Actual Time 7:03 AM CST 6:33 PM CST
Civil Twilight 6:34 AM CST 7:02 PM CST
Nautical Twilight 6:01 AM CST 7:35 PM CST
Astronomical Twilight 5:27 AM CST 8:09 PM CST
Moon 4:11 AM CST (3/7) 2:17 PM CST (3/7)
Length of Visible Light 12h 28m
Length of Day
11h 30m
Waning Crescent, 20% of the Moon is Illuminated
Mar 7
Waning Crescent
Mar 11
New
Mar 19
First Quarter
Mar 27
Full
Apr 2
Last Quarter

Hourly Weather History & Observations

Time (CST) Temp. Windchill Dew Point Humidity Pressure Visibility Wind Dir Wind Speed Gust Speed Precip Events Conditions
12:52 AM 27.0 °F 14.7 °F 21.0 °F 78% 30.14 in - ESE 16.1 mph - N/A   Unknown
1:52 AM 26.1 °F 13.1 °F 19.9 °F 78% 30.12 in - SE 17.3 mph - N/A   Unknown
2:52 AM 25.0 °F 11.3 °F 19.9 °F 81% 30.09 in - SE 18.4 mph - N/A   Unknown
3:52 AM 25.0 °F 9.5 °F 19.9 °F 81% 30.06 in - SE 24.2 mph 29.9 mph N/A   Unknown
4:52 AM 25.0 °F 10.6 °F 19.9 °F 81% 30.06 in - SE 20.7 mph - N/A   Unknown
5:52 AM 25.0 °F 11.7 °F 19.9 °F 81% 30.05 in - SE 17.3 mph - N/A   Unknown
6:52 AM 25.0 °F 11.3 °F 19.9 °F 81% 30.05 in - SE 18.4 mph - N/A   Unknown
7:52 AM 26.1 °F 12.7 °F 21.0 °F 81% 30.06 in - SE 18.4 mph - N/A   Unknown
8:52 AM 28.9 °F 15.4 °F 21.9 °F 75% 30.06 in - SSE 21.9 mph 26.5 mph N/A   Unknown
9:52 AM 33.1 °F 20.9 °F 23.0 °F 66% 30.04 in - SSE 21.9 mph 27.6 mph N/A   Unknown
10:52 AM 37.9 °F 27.3 °F 24.1 °F 57% 30.02 in - South 21.9 mph 28.8 mph N/A   Unknown
11:52 AM 41.0 °F 31.9 °F 25.0 °F 53% 30.02 in - South 19.6 mph - N/A   Unknown
12:52 PM 44.1 °F 36.8 °F 26.1 °F 49% 30.02 in - South 16.1 mph - N/A   Unknown
1:52 PM 48.0 °F - 28.0 °F 46% 29.99 in - SSE 16.1 mph 23.0 mph N/A   Unknown
2:52 PM 51.1 °F - 28.9 °F 43% 29.99 in - SSE 13.8 mph - N/A   Unknown
3:52 PM 52.0 °F - 28.9 °F 41% 29.99 in - SSE 13.8 mph - N/A   Unknown
4:52 PM 51.1 °F - 30.0 °F 44% 30.00 in - SE 11.5 mph - N/A   Unknown
5:52 PM 46.9 °F - 30.0 °F 52% 30.03 in - East 8.1 mph - N/A   Unknown
6:52 PM 43.0 °F 37.7 °F 28.9 °F 58% 30.05 in - East 9.2 mph - N/A   Unknown
7:52 PM 37.9 °F 31.5 °F 28.0 °F 68% 30.08 in - East 9.2 mph - N/A   Unknown
8:52 PM 35.1 °F 28.6 °F 27.0 °F 72% 30.09 in - East 8.1 mph - N/A   Unknown
9:52 PM 34.0 °F 29.8 °F 27.0 °F 75% 30.11 in - ENE 4.6 mph - N/A   Unknown
10:52 PM 32.0 °F 24.8 °F 27.0 °F 82% 30.13 in - North 8.1 mph - N/A   Unknown
11:52 PM 30.9 °F 24.3 °F 27.0 °F 85% 30.14 in - North 6.9 mph - N/A   Unknown